Header for Extended Forecast Station List Page

Search by: ID | Name | Date | Parm | Value | Avg | % Avg
Sort by: ID | Name | Date | Parm | Value | Avg | % Avg

Enter search or view all records.

Click on id for station plot
#IDNameDateParmValueAvg% Avg
0LYDM8KOOTENAI-LIBBY DAM12-05-2022INFLOW (KAF)61384173
1LEOI1KOOTENAI-AT LEONIA12-05-2022DISCHARGE (KAF)1720227576
2BFEI1KOOTENAI-AT BONNERS FERRY12-05-2022STAGE (FT)MMM
3FCFM8NF FLATHEAD-NEAR COLUMBIA FALLS12-05-2022DISCHARGE (KAF)11218760
4WGCM8MF FLATHEAD-NEAR WEST GLACIER12-05-2022DISCHARGE (KAF)4216925
5HHWM8SF FLATHEAD-HUNGRY HORSE DAM12-05-2022INFLOW (KAF)13026749
6CFMM8FLATHEAD-AT COLUMBIA FALLS12-05-2022DISCHARGE (KAF)86097888
7DLGM8CLARK FORK-AT DEER LODGE12-05-2022DISCHARGE (KAF)435283
8DRMM8CLARK FORK-NR DRUMMOND12-05-2022DISCHARGE (KAF)11212888
9RCCM8ROCK CREEK-NEAR CLINTON12-05-2022DISCHARGE (KAF)4847102
10BONM8BLACKFOOT-NEAR BONNER12-05-2022DISCHARGE (KAF)11414777
11ABOM8CLARK FORK-ABOVE MISSOULA12-05-2022DISCHARGE (KAF)28434782
12BITM8BITTERROOT-NEAR MISSOULA12-05-2022DISCHARGE (KAF)16821777
13BELM8CLARK FORK-BELOW MISSOULA12-05-2022DISCHARGE (KAF)44157677
14STRM8ST. REGIS-NEAR ST. REGIS12-05-2022DISCHARGE (KAF)195435
15SRGM8CLARK FORK-AT ST REGIS12-05-2022DISCHARGE (KAF)54577870
16KERM8FLATHEAD-SELI’Š KSANKA QLISPE’ DAM12-05-2022INFLOW (KAF)955144666
17NOXM8CLARK FORK-NOXON RAPIDS DAM12-05-2022INFLOW (KAF)2428314577
18CABI1CLARK FORK-CABINET GORGE DAM12-05-2022INFLOW (KAF)2685361474
19PRTI1PRIEST-NEAR PRIEST RIVER12-05-2022DISCHARGE (KAF)12825251
20ALFW1PEND OREILLE-ALBENI FALLS DAM12-05-2022INFLOW (KAF)3022412773
21HOPI1PEND OREILLE-PEND OREILLE LAKE NR HOPE12-05-2022LAKE ELEVATION (FT)MMM
22COEI1COEUR D ALENE-COEUR D ALENE LAKE12-05-2022INFLOW (KAF)835132663
23SPOW1SPOKANE-AT SPOKANE12-05-2022DISCHARGE (KAF)756142153
24LLKW1SPOKANE-AT LONGLAKE12-05-2022INFLOW (KAF)1059170262
25SATI1ST MARIES-NEAR SANTA12-05-2022DISCHARGE (KAF)278134
26SJMI1ST JOE-AT ST MARIES12-05-2022STAGE (FT)MMM
27CIBW1COLUMBIA-AT INTL BOUNDARY12-05-2022DISCHARGE (KAF)156441970379
28LAUW1KETTLE-AT LAURIER12-05-2022DISCHARGE (KAF)7117840
29GCDW1COLUMBIA-GRAND COULEE DAM12-05-2022INFLOW (KAF)168372163478
30CHJW1COLUMBIA-CHIEF JOSEPH DAM12-05-2022INFLOW (KAF)203402386685
31TONW1OKANOGAN-NEAR TONASKET12-05-2022DISCHARGE (KAF)19032159
32PATW1METHOW-NEAR PATEROS12-05-2022DISCHARGE (KAF)7511267
33WELW1COLUMBIA-WELLS DAM12-05-2022INFLOW (KAF)206042452484
34CHDW1CHELAN-LAKE CHELAN DAM12-05-2022INFLOW (KAF)6420931
35RRHW1COLUMBIA-ROCKY REACH DAM12-05-2022INFLOW (KAF)208462492784
36ARDW1ENTIAT-NEAR ARDENVOIR12-05-2022DISCHARGE (KAF)142751
37PESW1WENATCHEE-AT PESHASTIN12-05-2022DISCHARGE (KAF)14934743
38WANW1COLUMBIA-WANAPUM DAM12-05-2022INFLOW (KAF)209952554582
39PRWW1COLUMBIA-PRIEST RAPIDS DAM12-05-2022INFLOW (KAF)209932562182
40KEDW1YAKIMA-KEECHELUS LAKE12-05-2022INFLOW (KAF)345363
41KADW1KACHESS-KACHESS DAM12-05-2022INFLOW (KAF)325262
42EASW1YAKIMA-AT EASTON12-05-2022DISCHARGE (KAF)488458
43CLUW1CLE ELUM-CLE ELUM LAKE12-05-2022INFLOW (KAF)5311845
44TNAW1TEANAWAY-BELOW FORKS12-05-2022DISCHARGE (KAF)476473
45UMTW1YAKIMA-AT UMTANUM12-05-2022DISCHARGE (KAF)22635863
46BUDW1BUMPING-BUMPING LAKE DAM12-05-2022INFLOW (KAF)194047
47CLFW1NACHES-NEAR CLIFFDEL12-05-2022DISCHARGE (KAF)5913543
48RILW1TIETON-RIMROCK LAKE NEAR RIMROCK12-05-2022INFLOW (KAF)457857
49NACW1NACHES-NEAR NACHES12-05-2022DISCHARGE (KAF)5918831
50PARW1YAKIMA-NEAR PARKER12-05-2022DISCHARGE (KAF)35059259
51KIOW1YAKIMA-AT KIONA12-05-2022DISCHARGE (KAF)49285557
52IPDI1HENRYS FORK-ISLAND PARK DAM12-05-2022INFLOW (KAF)8010576
53CHEI1FALL RIVER-NEAR CHESTER12-05-2022DISCHARGE (KAF)9911388
54ANTI1HENRYS FORK-AT ST. ANTHONY12-05-2022DISCHARGE (KAF)30238179
55TEAI1TETON-NEAR ST. ANTHONY12-05-2022DISCHARGE (KAF)729973
56REXI1HENRYS FORK-AT REXBURG12-05-2022DISCHARGE (KAF)34343778
57JLKW4SNAKE-JACKSON LAKE AT DAM12-05-2022INFLOW (KAF)7911768
58JKSW4SNAKE-NEAR JACKSON12-05-2022DISCHARGE (KAF)25031679
59ALPW4SNAKE-NEAR ALPINE12-05-2022DISCHARGE (KAF)28637776
60PLDI1SF SNAKE-PALISADES DAM12-05-2022INFLOW (KAF)45459177
61HEII1SNAKE-NEAR HEISE12-05-2022DISCHARGE (KAF)509395129
62RIDI1WILLOW CREEK-RIRIE DAM12-05-2022INFLOW (KAF)61543
63SIFI1SNAKE-AB EAGLE ROCK NR IDAHO FALLS12-05-2022DISCHARGE (KAF)67468299
64SHYI1SNAKE-NEAR SHELLEY12-05-2022DISCHARGE (KAF)64868595
65SNAI1SNAKE-AT BLACKFOOT12-05-2022DISCHARGE (KAF)57759996
66BFTI1SNAKE-NEAR BLACKFOOT12-05-2022DISCHARGE (KAF)57858699
67PIHI1PORTNEUF-AT POCATELLO12-05-2022DISCHARGE (KAF)415772
68AFRI1SNAKE-AMERICAN FALLS RESERVOIR12-05-2022INFLOW (KAF)12131211100
69MILI1SNAKE-AT MILNER12-05-2022DISCHARGE (KAF)485488
70HOTI1BRUNEAU-NEAR HOT SPRINGS12-05-2022DISCHARGE (KAF)153839
71SWAI1SNAKE-BELOW SWAN FALLS12-05-2022DISCHARGE (KAF)1760187794
72HWRI1BIG LOST-AT HOWELL RANCH NEAR CHILLY12-05-2022DISCHARGE (KAF)171891
73MACI1BIG LOST-MACKAY RESERVOIR NEAR MACKAY12-05-2022INFLOW (KAF)303878
74HALI1BIG WOOD-AT HAILEY12-05-2022DISCHARGE (KAF)304076
75MAGI1BIG WOOD-MAGIC DAM12-05-2022INFLOW (KAF)273676
76LWRI1LITTLE WOOD-LITTLE WOOD DAM12-05-2022INFLOW (KAF)91752
77OWYO3OWYHEE-OWYHEE DAM12-05-2022INFLOW (KAF)174171101
78ARAI1SF BOISE-ANDERSON RANCH DAM12-05-2022INFLOW (KAF)819585
79LUCI1BOISE-LUCKY PEAK DAM12-05-2022INFLOW (KAF)20122191
80BIGI1BOISE-AT GLENWOOD BRIDGE12-05-2022DISCHARGE (KAF)13466204
81PARI1BOISE-NEAR PARMA12-05-2022DISCHARGE (KAF)273199137
82WRMO3MALHEUR-WARM SPRINGS DAM12-05-2022INFLOW (KAF)244750
83BERO3MALHEUR-AGENCY VALLEY DAM12-05-2022INFLOW (KAF)172664
84BULO3BULLY CREEK-BULLY CREEK DAM12-05-2022INFLOW (KAF)215414
85CSDI1NF PAYETTE-CASCADE DAM12-05-2022INFLOW (KAF)6811560
86DEDI1DEADWOOD-NEAR LOWMAN12-05-2022INFLOW (KAF)132068
87EMMI1PAYETTE-NEAR EMMETT12-05-2022DISCHARGE (KAF)31239080
88WSRI1WEISER-NEAR WEISER12-05-2022DISCHARGE (KAF)21021299
89WEII1SNAKE-AT WEISER12-05-2022DISCHARGE (KAF)2870302795
90BRNI1SNAKE-BROWNLEE DAM12-05-2022INFLOW (KAF)3108327795
91WHBI1SALMON-AT WHITEBIRD12-05-2022DISCHARGE (KAF)853111577
92TRYO3GRANDE RONDE-TROY12-05-2022DISCHARGE (KAF)28855952
93ANAW1SNAKE-NEAR ANATONE12-05-2022DISCHARGE (KAF)4322581674
94ORFI1CLEARWATER-AT OROFINO12-05-2022DISCHARGE (KAF)510110746
95DWRI1NF CLEARWATER-DWORSHAK DAM12-05-2022INFLOW (KAF)57988066
96SPDI1CLEARWATER-AT SPALDING12-05-2022DISCHARGE (KAF)1179207257
97LGDW1SNAKE-LOWER GRANITE DAM12-05-2022INFLOW (KAF)5502805068
98LGSW1SNAKE-LITTLE GOOSE DAM12-05-2022INFLOW (KAF)5502809068
99LMNW1SNAKE-LOWER MONUMENTAL DAM12-05-2022INFLOW (KAF)5972824572
100IHDW1SNAKE-ICE HARBOR DAM12-05-2022INFLOW (KAF)5972827572
101TCHW1WALLA WALLA-NEAR TOUCHET12-05-2022DISCHARGE (KAF)17020682
102MCDW1COLUMBIA-MCNARY DAM12-05-2022INFLOW (KAF)276033499479
103GIBO3UMATILLA-NEAR GIBBON12-05-2022DISCHARGE (KAF)546091
104PDTO3UMATILLA-AT PENDLETON12-05-2022DISCHARGE (KAF)13415388
105MYKO3MCKAY CREEK-NEAR PILOT ROCK12-05-2022DISCHARGE (KAF)4138110
106UMAO3UMATILLA-NEAR UMATILLA12-05-2022DISCHARGE (KAF)12714687
107MONO3NF JOHN DAY-AT MONUMENT12-05-2022DISCHARGE (KAF)11726544
108SERO3JOHN DAY-AT SERVICE CK12-05-2022DISCHARGE (KAF)19741548
109JDAO3COLUMBIA-JOHN DAY DAM12-05-2022INFLOW (KAF)291133672679
110MODO3DESCHUTES-AT MOODY NR BIGGS12-05-2022DISCHARGE (KAF)936143265
111TDAO3COLUMBIA-THE DALLES DAM12-05-2022INFLOW (KAF)292243738478
112PITW1KLICKITAT-NEAR PITT12-05-2022DISCHARGE (KAF)33238985
113HODO3HOOD-NEAR TUCKER BRIDGE12-05-2022DISCHARGE (KAF)279252111
114UNDW1WHITE SALMON-NEAR UNDERWOOD12-05-2022DISCHARGE (KAF)24529384
115BONO3COLUMBIA-BONNEVILLE DAM12-05-2022INFLOW (KAF)300633920177